Date,TemperatureHighF,TemperatureAvgF,TemperatureLowF,DewpointHighF,DewpointAvgF,DewpointLowF,HumidityHigh,HumidityAvg,HumidityLow,PressureMaxIn,PressureMinIn,WindSpeedMaxMPH,WindSpeedAvgMPH,GustSpeedMaxMPH,PrecipitationSumIn
2013-1-1,32.3,22.5,10.2,28.9,17.5,7.0,91,81,71,30.05,29.83,11,4,31,0.00
2013-1-2,26.3,19.8,13.2,20.1,14.5,9.4,94,80,68,30.23,30.01,10,3,31,0.00
2013-1-3,28.3,22.3,13.1,26.0,18.3,10.2,93,85,73,30.22,29.99,9,3,16,0.00
2013-1-4,35.2,31.0,28.3,25.2,22.1,17.9,83,70,52,30.02,29.88,14,7,25,0.02
2013-1-5,35.2,31.4,28.3,25.9,23.7,21.3,81,73,62,30.30,30.01,10,4,21,0.00
2013-1-6,38.6,34.1,30.2,33.8,28.6,22.9,100,80,70,30.08,29.89,7,3,15,0.03
2013-1-7,34.7,29.6,26.1,31.8,24.2,20.0,95,80,64,30.38,30.05,9,3,16,0.01
2013-1-8,42.2,32.8,23.7,23.5,20.6,16.0,75,61,43,30.33,30.19,5,2,10,0.00
2013-1-9,49.8,40.6,29.6,36.9,28.3,20.6,77,62,48,30.30,29.97,17,7,32,0.00
2013-1-10,42.8,36.5,30.0,28.5,27.1,25.5,84,69,54,30.57,30.30,13,3,21,0.00
2013-1-11,43.3,39.6,32.6,40.6,32.0,23.8,90,75,50,30.44,29.92,11,5,23,0.10
2013-1-12,55.8,49.2,43.0,49.2,45.2,40.3,95,86,76,30.03,29.97,8,3,13,0.00
2013-1-13,60.1,53.8,45.5,52.5,49.4,43.7,97,85,75,29.98,29.75,10,3,18,0.00
2013-1-14,55.8,46.8,38.2,51.3,42.1,31.0,91,84,75,30.12,29.71,12,6,26,0.00
2013-1-15,35.9,30.2,26.1,22.7,20.8,19.4,80,68,53,30.39,30.18,4,1,8,0.00
2013-1-16,37.4,31.9,28.1,30.4,26.0,22.1,93,79,62,30.18,29.78,5,2,12,0.01
2013-1-17,34.2,25.3,17.1,28.8,19.9,14.6,90,80,61,30.18,29.86,12,4,19,0.00
2013-1-18,25.8,18.9,12.2,14.7,10.6,6.6,92,72,52,30.44,30.14,9,3,16,0.00
2013-1-19,48.5,44.5,36.2,29.5,24.6,19.8,52,46,36,30.01,29.62,8,5,19,0.02
2013-1-20,47.0,30.8,18.9,34.4,19.1,7.7,88,63,39,30.05,29.44,19,9,34,0.05
2013-1-21,22.6,17.8,12.6,17.5,10.6,2.7,92,73,58,30.05,29.86,8,2,20,0.00
2013-1-22,13.4,8.6,5.0,3.1,-0.8,-5.1,80,65,47,30.20,29.90,10,6,20,0.00
2013-1-23,14.4,7.5,2.6,3.1,-1.1,-7.2,83,68,50,30.25,30.13,7,2,20,0.00
2013-1-24,14.7,8.4,3.7,8.0,2.8,-0.2,89,78,63,30.54,30.11,11,2,20,0.00
2013-1-25,16.7,10.9,6.4,10.3,5.5,0.9,89,79,62,30.52,30.09,4,1,20,0.00
2013-1-26,23.3,14.2,3.8,13.4,7.8,0.8,99,77,56,30.41,30.11,6,1,20,0.02
2013-1-27,30.5,21.9,17.1,18.2,15.8,11.3,89,78,54,30.57,30.39,6,2,20,0.01
2013-1-28,44.5,35.2,21.4,43.3,30.7,15.0,96,84,59,30.39,29.88,9,3,20,0.16
2013-1-29,55.7,45.0,35.4,53.2,43.4,34.5,98,94,86,30.04,29.78,6,2,20,0.27
2013-1-30,63.1,56.8,53.5,56.0,51.2,48.2,92,82,71,29.78,29.02,17,6,29,0.05
2013-1-31,55.3,30.6,19.3,52.0,25.0,15.3,94,80,58,29.69,28.97,17,10,35,0.27